Wind_Speed
10 9 9 9 9 8 8 8 8 9 9 10 11 10 10 9 9 9 10 11 11 12 11 10 9 9 8 9 9 9 10 10 11 14 15 8 4 9 9 10 14 14 13 11 8 6 8 9 8 9 10 8 6 5 6 7 6 4 2 2 3 3 4 4 5 3 3 6 6 11 14 6 5 6 9 10 13 15 11 6 6 3 3 16 12 22 39 31
10 9 8 8 8 7 7 7 7 8 10 10 11 11 11 10 9 9 9 10 11 11 11 10 9 8 9 9 9 10 10 10 12 13 7 3 1 7 9 12 15 15 14 11 9 6 7 8 8 9 9 6 5 5 5 6 8 5 3 2 4 4 5 5 5 3 3 7 9 11 14 7 3 3 2 4 4 8 9 6 9 11 12 14 17 31 36 30
10 9 9 8 8 7 6 6 7 8 9 10 11 12 12 10 9 8 9 10 10 11 11 10 9 9 9 9 10 10 10 11 12 6 2 5 3 2 8 13 14 14 13 11 9 7 7 7 7 6 5 3 4 4 3 5 6 6 4 2 6 5 5 7 8 9 12 12 9 11 14 13 7 5 2 4 5 3 4 5 7 13 19 22 28 36 32 31
10 10 9 8 8 7 6 6 7 8 8 10 11 12 12 11 10 8 9 9 10 10 10 10 9 9 9 10 9 9 11 12 6 3 3 3 4 2 7 13 14 13 13 12 10 7 6 7 6 4 3 1 2 3 3 5 5 4 5 4 6 3 3 11 14 15 17 12 8 11 12 13 11 6 3 7 7 4 5 9 8 14 24 30 34 34 32 33
10 10 9 9 9 7 7 6 7 7 8 10 11 12 12 11 10 9 9 9 10 10 10 9 9 9 9 9 9 8 8 5 2 4 1 2 3 3 4 11 13 12 13 13 10 7 7 8 6 2 2 1 1 1 3 8 6 2 4 7 8 4 3 14 18 15 15 11 9 10 7 7 8 4 4 9 5 3 9 13 13 17 26 33 37 35 34 35
11 11 10 10 10 9 8 7 7 7 8 9 10 11 12 11 10 10 10 10 10 9 9 9 8 8 8 8 8 7 4 1 1 2 1 0 2 1 2 8 11 12 13 14 11 7 7 8 6 2 2 0 1 3 5 9 8 3 5 6 12 11 6 16 20 15 13 9 7 6 5 7 7 6 1 7 5 3 7 15 16 19 27 35 38 37 36 34
11 10 11 11 11 10 9 8 8 8 8 8 9 10 11 11 11 11 11 11 10 9 8 8 8 8 7 8 7 6 7 6 3 2 1 1 2 2 2 7 11 13 14 14 12 8 8 8 7 4 2 1 3 6 8 9 8 6 5 4 13 15 12 21 25 22 17 11 12 10 7 9 7 6 3 0 3 3 5 13 19 24 31 35 36 36 36 34
10 10 10 11 11 11 10 9 8 8 8 8 8 9 10 11 11 11 11 11 10 9 8 8 8 7 7 7 6 6 10 7 2 1 1 2 3 5 5 7 11 13 13 13 11 9 9 10 8 5 2 2 3 4 6 5 4 5 6 6 10 14 17 25 26 26 22 17 20 15 7 12 13 6 2 4 3 2 7 15 23 29 33 34 35 35 34 34
10 10 10 10 11 12 12 10 9 9 9 8 8 8 10 11 11 11 11 11 11 10 9 8 7 7 6 6 5 6 6 4 1 1 2 3 5 6 7 8 10 13 12 12 11 10 11 11 10 6 3 5 4 4 3 1 3 5 9 8 7 12 19 23 21 23 22 17 15 8 6 14 14 4 2 2 2 7 13 20 27 32 34 34 34 34 33 34
11 10 9 10 10 11 12 11 11 10 9 9 8 8 9 10 11 11 11 11 11 11 9 8 7 6 7 6 2 1 3 1 1 2 3 6 8 6 8 8 10 11 12 13 13 14 13 10 7 4 4 6 5 4 2 3 4 4 7 9 10 16 20 17 15 19 17 13 13 9 6 11 8 7 1 3 9 13 19 24 28 32 34 34 33 33 32 32
12 10 9 9 9 10 11 11 12 11 10 9 9 8 9 10 10 11 11 10 10 10 10 8 7 7 8 7 5 4 3 1 0 3 5 7 8 5 6 8 10 11 13 14 16 16 12 7 2 2 3 4 3 4 4 4 5 9 9 7 10 13 14 13 11 13 9 7 12 10 5 5 4 6 7 13 17 18 23 26 27 30 32 33 33 32 31 31
13 11 9 9 9 9 9 11 12 12 11 10 9 9 10 10 10 11 11 11 10 10 10 9 8 8 9 11 13 8 3 2 2 5 4 5 5 2 3 6 8 10 13 15 16 11 6 4 5 6 5 4 3 4 5 5 7 10 6 3 8 8 7 10 8 8 6 4 7 6 2 5 2 4 10 21 21 20 24 26 25 27 30 32 33 33 31 30
14 11 10 9 9 9 9 10 11 12 11 11 10 10 11 11 11 11 11 11 11 10 10 9 9 10 10 12 11 6 5 6 6 6 3 4 3 3 4 5 6 8 11 14 12 4 4 6 9 11 12 7 3 4 6 8 8 7 2 1 5 7 5 6 3 3 3 4 8 6 3 6 6 6 14 24 24 23 24 24 25 26 29 31 33 33 31 30
16 12 10 9 9 9 9 9 9 11 11 11 11 11 11 12 12 12 13 12 12 10 9 9 9 10 9 11 6 4 8 9 10 7 4 3 3 5 6 7 6 8 9 10 7 4 7 10 11 13 14 10 8 7 7 7 5 4 2 2 2 2 5 7 2 1 1 4 10 8 4 7 7 6 18 26 27 28 24 22 25 27 29 31 33 32 30 30
19 15 11 10 10 9 9 9 9 9 10 11 11 12 12 13 14 14 14 13 12 11 9 9 10 9 11 13 8 6 10 11 11 8 4 4 4 7 7 9 8 8 8 6 4 5 8 11 11 9 10 9 6 3 3 5 4 3 2 2 3 0 4 9 5 5 5 6 8 9 3 5 5 8 21 26 26 28 25 22 24 26 28 30 31 30 30 29
19 17 13 11 10 9 9 9 8 8 9 10 11 12 13 13 14 15 16 15 12 10 9 8 8 7 9 8 4 6 11 12 10 7 7 6 6 8 8 8 6 5 6 5 4 7 9 10 9 7 5 4 1 3 4 5 4 3 2 2 4 2 3 7 5 6 10 5 4 6 4 3 4 9 20 24 23 23 22 21 22 25 27 29 30 29 29 28
18 18 16 12 11 10 9 8 8 8 8 9 11 12 12 13 15 16 17 15 12 9 8 7 7 9 8 7 3 3 7 11 10 7 8 7 7 8 8 7 5 4 6 6 7 10 9 6 5 4 1 2 3 4 3 3 3 4 2 0 4 3 2 4 6 6 5 5 4 4 4 2 2 7 17 21 22 21 21 21 22 23 25 28 30 28 27 28
17 17 17 14 12 10 9 8 8 8 7 8 8 9 11 13 14 16 14 11 8 5 6 7 5 5 6 8 4 2 4 7 10 9 7 6 6 7 7 7 4 5 6 5 6 7 6 3 1 0 2 4 3 5 2 3 3 2 2 1 3 3 2 4 6 5 3 3 5 4 3 1 3 6 13 16 20 19 17 19 20 22 25 26 28 28 28 28
17 16 17 16 13 11 9 8 7 6 6 7 7 8 11 12 12 11 6 4 5 3 5 7 7 3 6 10 10 7 8 7 8 10 9 7 7 8 8 8 6 6 3 1 3 3 3 0 2 0 2 2 2 5 6 7 6 5 4 3 3 4 4 6 6 6 3 2 4 5 4 3 4 6 8 12 16 13 9 13 18 20 23 25 26 28 29 30
17 16 16 16 15 12 9 8 7 6 5 7 8 10 9 7 6 4 4 9 12 11 12 14 14 16 18 19 17 14 12 7 7 12 11 10 10 9 10 10 6 4 3 3 3 1 2 1 1 4 6 7 7 7 7 4 5 4 3 3 4 4 5 6 6 6 1 4 1 2 6 6 8 9 9 15 15 9 9 13 17 20 23 26 27 28 30 32
17 16 15 15 15 13 9 7 7 6 7 8 9 10 8 7 4 4 7 14 18 16 17 19 18 22 23 21 19 17 13 7 6 12 13 13 14 9 8 8 3 2 4 3 2 1 3 2 6 9 10 8 5 4 4 2 3 3 3 3 4 4 5 6 4 6 3 5 3 1 8 3 4 7 9 16 14 9 14 17 18 22 24 26 27 26 28 30
17 16 15 15 15 14 10 8 8 8 9 10 9 9 9 10 8 8 9 12 19 20 18 18 19 24 24 21 20 18 11 6 7 11 13 16 16 10 7 6 4 3 2 2 2 2 2 3 10 9 6 3 3 5 4 2 2 2 1 2 2 3 4 6 5 7 6 5 1 1 6 1 4 2 5 12 14 15 24 26 25 27 26 25 27 27 29 29
18 17 16 14 13 14 12 9 9 9 10 9 7 8 10 12 11 10 10 8 16 21 16 16 20 23 22 20 18 14 9 6 7 11 14 17 17 14 9 5 4 3 1 4 4 2 1 6 9 4 5 4 3 2 4 1 1 2 2 2 2 4 1 3 6 7 6 3 2 4 5 3 6 4 3 6 5 9 19 23 24 28 30 30 31 32 33 33
19 18 17 15 13 13 12 11 10 10 11 8 6 7 8 10 13 11 9 6 9 13 11 12 14 18 21 16 11 10 10 8 8 9 14 19 18 14 9 6 4 2 2 4 7 5 6 10 5 3 5 6 4 3 4 1 3 3 3 4 2 4 2 4 5 5 5 5 4 6 6 5 5 2 3 4 3 2 11 15 17 22 25 27 29 30 34 36
19 18 18 16 14 12 12 12 9 9 10 7 5 6 6 8 12 12 8 3 5 7 6 6 8 13 16 11 8 11 7 7 12 12 15 22 20 11 5 6 5 3 4 6 6 4 8 9 3 1 2 5 4 5 5 6 3 4 4 6 7 5 4 3 3 4 4 5 4 5 5 3 5 2 4 2 0 2 6 9 12 15 17 20 24 27 31 33
20 19 18 17 15 12 12 10 7 8 9 6 6 7 5 6 10 10 4 2 3 4 2 2 4 6 9 10 11 10 3 7 16 16 17 22 22 12 4 3 3 3 5 5 3 2 5 4 1 3 3 3 4 4 4 7 4 2 5 5 6 6 3 2 5 5 3 1 3 4 5 3 5 2 4 3 5 4 4 6 7 12 16 17 21 25 29 31
20 19 19 18 17 15 12 9 7 9 8 5 6 6 4 6 9 7 3 4 3 3 1 3 3 3 6 10 13 9 1 5 9 14 19 21 21 16 7 3 2 3 4 4 0 2 3 4 3 4 3 4 4 4 5 8 7 3 5 5 7 5 4 3 5 4 1 2 3 6 4 2 3 3 5 2 5 5 5 7 6 12 18 16 18 23 28 31
19 19 19 18 17 16 15 12 10 8 4 2 4 4 4 6 7 3 3 3 2 1 1 3 4 3 4 9 16 14 4 2 3 9 20 21 19 14 6 6 6 4 3 5 3 5 2 2 2 3 3 3 4 5 7 9 4 6 6 6 6 5 6 5 6 3 2 2 3 7 4 2 3 5 4 2 4 4 8 9 8 13 19 19 18 22 27 29
19 18 19 19 18 17 16 15 11 5 2 2 2 3 4 6 4 3 4 1 2 1 0 3 3 3 5 7 14 18 10 2 2 7 16 20 20 13 5 8 8 4 2 4 4 6 3 4 5 5 4 5 6 5 8 10 3 4 5 5 4 4 4 4 5 4 4 4 2 7 3 2 3 5 4 3 3 1 7 8 8 12 18 20 20 23 27 28
19 18 19 19 18 17 16 15 10 5 3 3 2 2 2 2 2 4 1 3 2 1 1 3 2 2 4 4 5 11 8 4 1 6 10 14 19 12 4 6 6 4 1 3 1 6 6 4 3 4 4 6 5 3 5 7 4 3 5 5 5 5 4 4 3 4 5 1 5 7 2 3 1 5 2 1 1 3 6 6 6 10 14 18 22 25 27 28
20 18 18 19 18 17 17 13 5 6 4 4 3 1 1 1 3 4 3 3 2 2 2 0 2 0 4 3 3 5 4 3 1 5 5 6 9 6 2 3 3 3 3 4 2 5 7 3 2 3 4 3 4 2 1 2 3 5 5 4 3 2 4 4 4 4 4 2 6 6 2 4 2 4 4 4 5 5 6 7 7 9 15 20 22 25 26 27
20 19 18 18 19 18 18 12 4 7 5 4 3 2 2 1 1 3 4 3 2 2 2 1 2 2 1 2 1 3 3 3 3 3 5 4 4 5 3 4 4 2 2 3 2 4 4 3 3 5 3 3 5 2 1 5 6 5 5 5 3 1 3 1 3 2 1 3 4 3 1 2 2 5 5 6 7 6 5 7 6 7 15 23 24 24 24 25
21 20 19 18 20 20 19 15 10 10 7 3 2 0 4 3 2 5 4 2 1 2 2 2 4 3 2 1 1 2 1 3 5 4 3 4 4 6 5 2 5 3 2 4 1 1 2 5 5 4 3 2 6 4 2 2 1 4 4 4 4 2 2 1 3 1 1 2 3 4 2 1 2 3 3 7 6 5 6 4 7 5 8 15 18 19 20 21
21 21 20 19 19 21 19 16 14 11 7 3 2 2 5 3 4 4 3 3 3 3 2 3 7 5 1 1 1 1 1 3 4 4 3 4 4 4 4 2 3 3 2 3 2 3 2 3 3 2 2 1 3 4 6 5 3 3 4 5 4 4 4 3 3 2 2 2 2 4 0 2 2 2 4 7 4 9 16 15 16 15 14 16 16 15 16 15
21 20 20 19 19 19 18 16 15 11 8 6 3 4 4 4 4 2 3 3 2 3 4 5 5 3 2 1 2 2 1 2 1 3 3 4 4 5 4 4 5 3 4 3 3 2 4 4 6 4 3 3 3 3 5 6 2 2 2 5 3 5 5 2 2 5 3 1 1 2 1 2 2 3 5 5 4 11 17 18 20 18 17 21 20 18 16 14
20 19 18 18 17 15 14 16 15 13 12 8 4 1 4 4 3 3 2 1 1 3 5 6 3 2 2 3 3 4 3 1 0 1 2 2 3 3 2 3 5 6 6 4 3 1 3 4 6 5 3 2 4 4 3 3 2 1 2 3 3 4 7 5 1 1 4 3 1 1 1 2 2 2 6 6 5 8 10 12 17 18 17 20 22 20 17 14
19 18 15 13 13 12 13 15 15 16 15 9 4 4 5 3 4 4 1 3 3 3 3 3 2 1 1 2 1 4 4 2 2 1 2 1 0 1 2 3 4 7 8 5 2 3 4 2 6 1 1 4 2 3 4 4 4 4 2 5 2 2 5 5 2 3 4 2 3 2 1 1 1 1 4 5 4 4 7 6 10 15 15 15 19 20 16 13
20 17 11 11 13 9 13 14 15 18 15 7 2 4 3 2 3 1 4 6 4 4 2 1 3 1 2 2 1 2 2 1 2 1 1 2 2 2 2 3 2 4 6 5 2 1 4 1 6 2 3 5 5 5 4 4 3 4 4 3 4 3 1 1 3 2 2 2 2 3 1 2 2 2 3 2 3 2 4 4 5 9 9 11 17 21 19 18
19 13 8 14 15 5 12 15 17 19 12 4 2 3 2 3 5 5 6 7 3 3 2 4 3 0 2 4 4 2 2 1 2 1 1 1 2 2 1 3 1 3 1 5 4 0 3 3 4 5 2 3 5 5 1 4 5 3 2 3 3 3 4 2 2 3 4 3 2 1 2 1 4 4 5 6 6 5 5 4 4 6 7 9 14 19 19 17
15 8 8 18 12 7 15 16 18 14 6 3 4 3 2 3 4 6 7 6 3 3 3 3 2 2 2 3 3 3 3 3 2 2 2 1 1 1 3 3 1 3 5 6 4 1 3 4 3 5 4 3 2 0 3 3 2 2 3 3 3 2 3 2 1 1 4 5 3 2 0 4 5 3 5 7 7 6 7 6 5 7 11 13 14 16 16 16
14 4 9 19 8 15 19 16 11 6 3 2 3 2 2 3 3 5 9 9 5 6 7 4 3 4 3 2 3 3 3 4 2 3 1 2 2 1 3 4 3 1 3 6 4 1 2 3 3 1 4 2 2 3 1 2 3 4 3 0 1 3 4 3 1 1 2 4 4 5 3 5 6 2 4 6 6 7 10 11 8 10 15 16 15 15 16 16
11 2 9 17 6 19 16 9 2 1 3 3 2 3 3 4 3 4 8 8 5 7 8 5 5 4 3 3 3 2 2 3 1 2 1 2 4 3 3 5 3 2 4 2 1 2 3 4 3 1 1 1 4 4 3 2 3 6 4 1 2 3 4 5 3 3 1 3 2 4 2 5 5 1 1 4 4 4 10 15 13 13 16 16 17 16 16 16
10 4 10 15 7 18 8 2 1 1 2 2 2 4 4 3 2 4 5 4 3 5 4 2 3 2 2 2 1 1 1 2 2 1 1 0 2 2 2 6 5 4 5 2 1 1 2 4 3 1 3 3 4 5 5 4 5 6 3 2 3 2 2 5 5 3 3 3 2 4 1 4 5 4 1 5 4 3 7 12 14 14 14 15 18 18 17 17
11 6 11 15 7 16 5 1 1 1 3 3 2 3 4 4 4 5 5 1 2 2 1 1 2 2 1 1 3 3 2 2 2 1 1 1 2 5 7 6 3 2 2 2 3 2 1 1 3 3 3 4 5 5 6 5 4 3 3 4 3 3 3 3 1 3 3 4 4 5 2 6 5 4 3 5 7 6 7 11 16 18 18 18 19 19 19 19
9 4 9 17 12 11 6 4 1 1 2 2 3 3 4 4 3 3 1 2 5 4 1 2 4 4 4 3 4 5 5 4 2 2 3 3 4 8 13 10 4 2 2 4 5 4 3 2 3 5 4 2 1 2 3 2 3 2 3 6 5 4 5 3 2 4 2 3 4 5 4 5 3 4 4 5 7 7 7 10 15 18 21 22 22 22 22 21
6 4 6 11 17 18 14 14 11 4 3 0 1 3 4 3 4 9 8 6 7 7 6 4 6 4 5 5 5 5 7 5 3 3 4 4 3 5 11 13 11 8 5 7 7 4 3 3 2 5 6 6 5 4 4 2 3 1 2 5 5 4 4 5 4 2 3 3 2 2 4 3 1 1 2 3 6 7 9 12 16 19 21 22 22 23 23 20
4 3 4 4 9 14 14 18 17 7 2 3 2 2 6 3 3 9 9 7 8 8 6 7 8 5 3 4 4 4 5 5 6 5 3 4 3 4 9 13 15 14 7 6 8 4 5 4 1 5 5 2 4 3 1 3 5 4 3 2 3 3 5 6 3 2 4 5 1 5 2 6 3 1 3 3 2 4 6 9 14 16 17 18 19 21 21 19
6 3 6 4 2 4 7 12 15 9 8 8 3 2 6 6 6 6 5 5 9 10 5 5 10 8 4 2 3 3 4 4 5 5 3 4 4 5 7 7 11 16 10 5 6 4 6 1 1 5 6 3 4 4 4 5 4 3 3 3 3 3 6 6 2 1 4 5 4 4 3 4 1 4 5 5 4 2 1 1 5 8 9 12 16 18 19 19
7 5 7 8 5 2 4 7 11 10 12 9 4 4 6 7 7 5 4 3 6 9 6 4 6 9 8 6 4 3 3 2 3 3 3 4 4 3 5 3 7 15 11 4 4 3 4 1 1 4 4 4 4 3 5 6 5 4 5 4 4 4 6 6 3 2 5 5 4 6 8 4 2 3 5 6 5 7 9 9 6 4 2 6 11 15 17 19
9 6 7 7 8 8 10 10 9 8 10 9 6 6 6 7 6 5 5 5 2 5 6 5 3 6 7 8 7 5 1 2 3 1 1 2 3 3 3 1 3 9 9 3 3 3 3 2 0 4 5 2 4 4 5 6 7 6 6 6 4 6 6 6 4 3 5 5 4 8 9 5 4 4 6 10 13 15 16 15 14 12 7 3 6 8 11 14
10 8 6 4 5 9 10 9 7 5 5 7 6 6 6 7 7 4 5 8 6 3 2 3 3 4 6 8 8 3 2 4 4 4 3 2 2 2 2 2 2 5 7 4 3 4 4 3 1 5 4 1 2 3 4 6 8 7 6 7 6 5 5 4 3 3 1 4 5 7 6 1 4 5 8 14 19 20 17 17 18 18 14 9 5 3 6 8
10 9 6 3 4 8 8 5 5 5 2 5 7 8 7 8 10 6 4 8 12 8 3 2 3 3 5 7 7 4 5 5 6 8 7 6 8 7 7 7 4 2 3 3 3 2 3 4 2 3 3 2 3 2 2 5 6 3 3 3 3 4 6 5 5 6 4 3 5 4 3 2 3 4 6 11 14 16 16 18 19 19 20 19 15 9 7 8
Wind_Direction
313 315 318 327 331 331 334 340 345 346 347 346 343 340 333 324 310 304 305 310 314 317 319 313 308 302 297 295 292 290 291 290 283 280 281 290 257 233 224 191 189 195 190 185 187 196 210 203 189 185 182 180 202 206 195 204 187 170 116 136 228 206 210 202 184 169 192 271 293 319 343 18 345 21 97 108 107 113 123 94 121 191 209 180 190 174 169 166
302 305 309 320 326 327 331 337 343 346 349 349 348 345 341 335 322 312 308 309 312 318 320 311 307 302 299 299 297 302 301 298 290 283 293 357 273 233 213 191 191 196 193 195 201 208 214 193 173 177 178 179 196 190 189 197 185 174 120 178 228 201 211 212 206 228 238 271 295 306 320 338 340 354 151 134 92 110 105 79 104 107 124 156 170 166 166 165
290 294 297 306 317 324 322 325 334 339 345 347 349 348 343 339 331 323 311 309 311 319 320 311 305 299 299 297 302 311 309 307 297 281 62 48 21 219 201 196 194 196 195 195 198 209 214 181 161 164 173 195 197 201 209 185 187 194 170 220 247 217 230 257 249 251 259 266 292 306 316 318 311 352 343 144 100 69 124 139 121 118 130 145 157 161 163 164
286 285 287 293 303 312 311 313 321 329 339 343 349 349 344 338 334 329 318 313 314 319 319 310 302 297 297 298 307 314 318 319 292 175 99 48 40 60 188 196 199 200 198 193 193 202 200 175 165 157 157 240 231 254 262 203 196 194 184 208 239 218 248 270 261 258 264 264 276 295 313 315 310 354 58 122 96 340 239 192 178 159 151 149 156 161 163 163
288 280 278 282 287 295 300 302 308 319 332 338 346 347 346 343 339 336 328 324 321 320 316 309 300 296 296 299 308 311 327 349 157 162 120 66 45 40 167 194 202 204 203 193 190 194 191 181 178 161 144 303 313 306 268 233 215 199 225 225 243 242 248 271 271 270 271 266 274 294 308 301 307 341 129 147 153 247 225 202 194 182 166 158 161 163 163 164
295 283 275 274 277 282 288 293 298 307 321 332 340 343 346 345 346 346 341 338 332 325 319 312 303 297 296 298 307 308 310 5 203 271 259 54 3 360 159 191 195 199 199 189 186 187 189 185 186 183 123 101 216 191 245 241 212 224 268 246 255 251 238 271 277 278 277 267 267 276 284 293 317 325 188 171 203 247 221 201 186 174 167 164 164 164 163 163
304 292 279 273 273 276 280 285 289 297 309 322 332 339 344 345 347 348 346 346 339 331 322 314 307 297 296 297 302 305 281 264 307 324 257 330 326 291 234 201 193 197 193 184 183 179 186 184 186 183 105 283 224 211 245 245 206 212 264 257 263 262 255 270 275 275 270 254 260 265 281 294 283 285 309 326 290 280 220 193 178 165 163 164 162 162 162 163
315 302 289 278 273 273 275 279 281 288 296 309 325 333 340 342 343 344 346 350 346 338 323 315 311 295 293 293 300 310 284 270 309 341 281 324 304 284 255 214 198 199 192 181 177 173 184 186 190 180 135 248 220 219 243 251 220 206 239 255 265 268 266 271 274 271 266 253 260 265 255 267 259 248 11 358 335 198 177 173 169 161 159 161 160 161 163 166
326 311 299 287 278 273 271 275 278 281 286 297 314 325 333 338 340 341 343 347 349 343 329 320 312 296 288 284 304 313 281 268 344 310 288 312 312 285 252 230 206 201 189 175 174 178 190 195 202 197 208 255 249 252 233 203 259 208 224 256 271 275 275 275 272 266 264 253 252 248 231 259 252 203 50 332 177 157 156 157 161 158 158 159 160 163 167 170
334 322 310 297 288 279 272 272 274 277 280 287 301 316 325 331 337 341 340 343 345 343 338 325 314 301 285 276 285 286 252 233 350 317 296 307 315 279 244 232 212 201 183 174 177 182 190 191 195 207 248 269 259 256 233 178 237 248 252 271 269 274 277 273 272 266 256 242 234 210 226 261 219 167 204 211 172 162 150 147 154 157 158 160 162 167 171 173
341 333 321 308 298 290 279 271 271 273 276 281 291 305 316 324 332 337 339 339 336 339 339 328 317 302 290 278 241 220 244 210 287 320 299 310 321 288 247 226 210 196 180 178 181 183 188 186 210 293 269 288 290 277 277 230 259 292 297 296 280 286 285 267 269 266 238 225 231 203 224 279 163 166 195 177 169 167 154 146 153 157 159 162 165 170 175 176
347 340 331 320 309 300 289 277 269 269 273 277 284 296 306 313 322 329 335 336 331 331 329 327 319 301 299 282 256 238 227 206 278 303 288 315 324 262 228 215 204 189 180 180 179 181 193 230 282 282 277 303 315 295 297 305 306 301 306 300 296 332 313 259 246 238 197 193 215 174 310 302 218 227 183 168 165 162 154 148 153 160 161 166 170 174 179 179
352 346 339 329 319 310 300 287 274 269 269 272 278 288 295 302 313 321 328 331 328 322 317 321 314 305 301 278 260 227 209 234 274 281 251 305 299 194 183 184 191 189 185 181 176 190 277 278 282 280 287 285 250 269 294 320 326 308 326 147 304 352 327 263 215 211 185 193 185 149 295 270 268 258 171 165 165 155 151 152 157 161 165 169 174 179 180 181
357 349 343 337 328 318 310 297 284 272 267 269 275 281 287 295 305 313 320 322 324 317 306 308 308 307 289 269 264 222 226 241 262 258 218 258 241 177 163 152 166 177 180 188 195 251 273 281 287 286 289 269 246 276 305 336 348 319 345 59 352 350 292 290 290 219 297 233 186 156 247 249 268 240 170 169 169 159 154 158 161 164 170 174 178 182 183 183
360 352 344 339 333 324 317 307 293 279 270 269 271 276 281 291 300 307 311 310 313 308 297 297 297 304 292 278 271 241 239 242 252 252 213 224 194 170 150 134 144 162 182 215 235 260 270 284 283 269 273 261 256 304 338 350 357 358 1 326 331 126 276 298 287 205 215 241 186 159 225 263 267 208 176 174 172 163 157 159 164 168 173 177 181 184 185 185
359 356 346 337 335 331 322 313 301 288 279 272 269 273 279 288 296 299 301 301 300 294 290 288 280 297 301 282 255 226 237 241 248 248 217 208 189 170 148 142 153 172 209 238 254 273 282 284 272 251 253 258 101 71 40 1 345 360 58 248 285 303 308 314 305 230 208 209 195 178 200 257 263 197 177 175 173 162 155 160 166 171 175 180 184 186 187 186
355 356 350 339 333 333 327 317 307 297 287 278 273 275 280 286 292 295 295 292 286 279 277 270 273 290 275 251 259 242 244 245 242 241 223 202 189 177 168 180 190 210 240 255 262 274 278 266 252 247 290 30 81 87 57 355 311 318 7 280 263 254 291 304 304 287 211 183 216 214 193 231 297 178 172 175 174 164 161 168 169 170 176 182 187 190 190 187
348 351 352 344 332 329 329 320 310 304 298 291 283 282 287 290 295 297 293 284 272 276 281 253 245 298 262 241 261 330 336 273 240 238 229 202 184 185 196 206 221 260 264 265 256 255 250 241 148 126 1 13 48 84 115 230 213 232 285 321 294 274 253 263 277 297 289 198 193 193 189 347 18 150 167 175 175 170 171 171 165 168 175 183 190 194 195 193
342 345 348 347 337 327 328 325 317 314 308 301 297 298 297 299 302 299 293 261 232 244 280 234 205 254 278 267 268 286 324 310 247 233 217 198 186 191 211 226 252 267 260 232 238 221 197 220 40 42 304 284 200 142 181 209 175 188 225 201 248 275 270 259 257 271 281 146 166 182 165 138 146 162 162 166 173 174 168 158 157 166 176 183 192 196 197 199
336 339 341 345 342 330 326 326 318 311 307 303 307 311 309 315 319 297 282 270 265 271 274 257 246 260 273 277 279 286 298 297 246 230 209 194 196 200 215 227 243 244 203 170 205 233 132 147 255 221 221 223 212 192 201 196 150 181 225 207 240 258 272 275 273 289 343 103 321 190 141 149 175 182 170 160 166 167 152 157 164 170 178 187 193 195 196 198
330 333 334 339 340 333 324 315 308 300 299 300 308 318 323 334 329 294 297 287 284 283 273 267 261 261 269 273 277 287 295 299 248 226 212 205 203 203 214 211 185 216 240 183 162 356 83 152 234 224 220 217 193 180 211 210 152 180 210 215 262 253 259 276 278 308 9 93 340 46 123 138 189 186 174 157 162 176 171 174 176 175 182 191 194 192 192 195
325 326 329 332 335 333 320 304 298 289 294 301 312 332 344 350 335 299 299 292 291 291 276 267 258 257 265 266 268 279 283 278 255 231 215 206 201 201 196 174 155 198 250 103 108 340 47 238 246 231 211 191 156 150 166 188 139 140 193 170 283 269 281 303 306 323 2 85 353 58 118 247 297 264 209 179 181 190 186 185 181 178 184 193 194 190 188 191
321 322 323 324 329 330 318 301 290 284 291 300 318 345 353 359 356 318 293 277 292 295 278 255 246 249 257 258 262 262 236 225 251 241 219 201 196 199 187 154 166 192 130 120 154 164 247 250 239 196 143 163 234 186 144 37 56 163 197 121 285 286 8 311 309 329 348 46 105 103 93 318 322 354 276 236 216 193 189 189 184 183 188 192 194 191 188 189
317 317 317 318 320 323 319 302 285 281 286 294 323 344 346 355 359 335 302 273 287 294 279 255 244 244 245 248 250 229 213 220 235 233 216 200 191 194 197 167 146 191 207 157 149 167 241 249 223 127 131 159 226 246 164 198 283 255 214 150 205 274 237 232 282 325 340 6 56 80 54 339 338 7 252 276 343 144 180 187 191 194 196 194 193 193 191 191
314 313 312 314 313 315 316 303 285 274 278 290 322 327 342 354 347 332 317 308 287 282 282 258 236 236 233 228 222 212 210 233 233 224 211 205 194 180 192 178 153 216 209 146 131 188 255 262 236 234 227 152 183 236 196 178 219 291 245 190 188 203 223 267 330 23 31 5 359 55 65 304 317 308 220 231 343 155 177 195 198 200 202 194 193 197 195 194
311 310 309 310 308 308 310 306 291 275 278 293 311 316 335 341 332 327 329 20 312 272 262 206 207 221 213 203 208 205 205 254 244 232 214 211 203 184 168 172 160 213 186 148 133 204 260 288 102 184 221 136 161 240 220 165 140 303 249 195 158 137 134 11 32 60 82 305 323 49 112 235 317 305 234 223 204 204 206 220 210 201 202 195 196 202 199 198
310 308 306 304 305 305 304 304 291 282 288 301 302 304 308 304 317 327 357 27 322 260 166 162 174 174 189 195 185 166 126 252 239 228 214 210 205 195 195 199 178 208 172 122 48 233 252 320 36 124 140 121 153 230 211 148 119 237 234 144 126 129 144 127 77 78 177 214 330 12 93 135 323 274 283 289 195 224 234 223 224 213 207 199 200 206 204 202
310 307 303 299 300 301 299 297 289 281 281 298 297 285 284 299 308 332 70 32 303 229 143 186 183 173 185 190 184 181 201 203 148 217 215 208 202 194 200 204 179 195 178 128 213 257 247 284 283 160 144 149 188 210 178 143 130 238 208 141 145 162 152 130 98 87 9 59 330 329 32 94 280 273 312 9 155 225 248 229 223 217 209 201 201 206 205 205
311 309 303 295 293 294 291 289 285 264 242 290 291 264 282 299 313 57 85 351 280 32 61 189 186 210 188 172 192 202 216 223 120 204 205 201 200 198 209 205 172 167 208 133 191 252 260 234 223 162 164 207 217 208 161 150 185 231 162 120 75 73 88 84 101 106 33 59 229 286 345 101 270 291 330 20 84 216 261 256 239 224 212 201 199 203 202 203
309 309 302 292 288 289 284 283 276 233 243 304 272 260 306 297 29 66 122 259 266 301 93 165 198 214 162 141 207 215 218 246 183 164 180 190 197 202 196 181 154 130 299 18 178 252 293 286 209 156 188 211 198 182 159 163 173 123 105 81 50 36 36 38 58 83 65 22 249 261 282 104 241 290 303 315 321 264 258 274 256 221 208 199 197 199 200 201
307 305 300 290 286 283 277 279 261 203 233 316 295 271 89 89 67 99 209 258 284 293 41 141 261 59 146 171 232 217 203 243 202 132 151 177 189 199 124 139 140 74 6 342 304 295 329 338 230 252 237 170 113 120 114 51 72 94 85 79 94 358 12 25 355 41 84 249 257 258 294 85 135 267 278 277 292 279 244 246 239 199 187 191 194 195 196 198
306 300 296 288 281 272 263 265 235 203 241 322 315 260 145 113 35 186 239 322 333 281 4 296 294 360 233 240 248 213 185 209 220 146 145 153 168 192 188 177 170 82 339 271 274 330 318 262 282 306 270 134 102 111 330 6 32 85 87 77 97 3 4 359 309 353 150 229 250 255 267 110 193 250 285 310 313 308 272 231 225 202 182 183 189 191 191 194
305 299 294 284 275 266 255 255 246 235 257 294 282 262 99 101 222 221 248 308 260 278 332 318 322 325 254 267 313 255 197 219 220 190 150 135 156 203 227 196 146 132 204 203 195 354 297 302 327 332 297 166 130 139 201 298 64 126 129 113 124 101 72 252 270 297 230 240 261 267 231 177 275 276 301 315 312 346 16 88 130 139 158 163 169 175 179 186
305 301 293 282 272 263 254 250 245 239 244 227 174 82 94 139 235 232 241 250 257 300 345 337 318 313 240 157 259 271 359 264 220 172 149 122 140 208 244 248 155 123 124 152 184 162 139 311 292 203 258 214 161 167 166 154 129 172 168 131 141 152 143 205 220 185 212 232 269 287 249 150 205 255 285 299 325 60 60 73 98 109 119 127 135 146 157 169
307 303 294 286 276 264 253 245 238 228 211 186 108 84 143 204 244 224 229 246 282 330 329 326 318 318 336 344 324 349 43 265 236 137 160 156 164 195 209 212 194 142 122 155 224 150 131 235 252 253 248 179 190 214 146 114 81 257 153 106 140 184 146 127 173 170 172 143 311 289 224 193 215 272 301 313 360 59 69 75 82 92 110 120 120 121 127 139
312 306 297 291 283 270 252 235 226 213 194 164 101 138 198 216 217 193 231 259 320 327 334 336 357 72 329 334 353 345 6 74 237 126 175 179 173 194 222 232 197 167 154 161 208 170 118 247 276 316 306 209 198 203 122 101 154 212 129 152 213 178 122 107 141 75 80 110 256 250 162 309 340 314 321 350 17 29 47 71 81 81 87 99 104 106 109 115
321 315 308 310 302 273 239 219 210 200 184 150 122 209 214 222 208 198 315 360 335 331 29 9 334 120 250 309 343 319 342 12 314 283 208 245 332 196 258 270 202 188 188 162 185 199 148 242 292 333 196 289 270 135 79 71 123 120 182 196 179 81 95 104 106 19 48 132 267 332 130 249 98 175 313 352 41 30 16 37 82 91 97 106 111 117 126 134
330 327 328 349 337 276 215 199 194 185 170 137 144 227 216 228 222 210 351 353 338 331 37 188 247 181 182 217 224 272 301 340 320 291 220 279 261 189 226 268 212 194 201 170 150 231 131 185 293 273 193 303 352 79 53 355 61 122 188 175 99 99 141 92 120 128 107 172 270 343 354 220 186 207 255 242 189 139 61 37 56 86 114 133 128 129 139 151
335 334 352 354 339 258 185 181 179 170 154 132 197 230 223 235 268 294 316 324 303 277 265 210 221 300 180 193 182 189 194 205 276 260 189 256 240 184 214 248 297 10 57 134 144 316 93 137 267 283 257 331 9 51 46 318 340 20 41 26 46 130 154 160 148 145 143 159 205 332 4 263 225 215 196 201 208 171 120 96 74 84 107 120 121 125 134 142
344 346 11 355 346 156 156 162 164 158 148 169 192 217 253 247 280 283 283 292 255 246 258 209 215 266 231 222 208 180 146 156 262 269 175 181 230 218 244 231 215 4 29 72 106 89 57 112 203 285 330 31 31 56 168 199 289 7 38 10 353 61 111 135 96 87 129 141 166 155 88 268 254 208 181 197 197 170 147 131 123 126 127 126 124 126 130 131
355 357 14 4 31 139 142 146 152 150 144 169 188 215 264 252 269 282 281 281 257 244 249 238 251 253 234 248 252 234 151 147 231 272 188 167 156 188 258 236 208 204 42 42 45 81 87 125 166 290 10 64 219 257 234 201 186 134 106 81 168 133 121 122 116 310 102 126 159 154 163 263 260 196 178 193 187 174 158 146 146 151 144 140 140 139 139 138
1 11 18 15 99 151 145 142 148 103 146 164 215 206 223 241 250 284 286 283 257 235 240 243 248 241 223 231 230 217 135 128 178 259 238 182 176 182 216 206 195 125 105 85 308 195 136 103 106 97 62 190 255 300 359 40 115 102 85 98 139 124 108 121 176 231 105 109 146 121 123 261 263 268 220 203 200 193 167 153 152 159 156 150 146 143 142 141
350 339 19 23 150 168 143 73 326 4 182 221 243 223 232 236 246 273 275 279 259 234 234 243 234 200 191 221 186 63 60 85 102 185 292 134 198 223 156 131 106 75 96 128 228 205 111 81 81 345 312 321 314 328 359 41 67 61 27 21 72 76 112 142 175 179 130 153 151 93 103 258 281 329 300 173 155 147 164 156 147 150 156 155 149 145 142 141
340 333 23 35 147 178 161 32 195 271 300 313 337 286 265 240 237 258 256 290 340 286 262 317 333 1 335 135 82 42 11 65 73 59 50 46 341 348 19 55 81 87 109 183 187 167 154 108 103 87 17 355 345 340 347 3 30 43 339 335 14 62 74 99 131 74 100 181 154 119 185 250 286 353 50 131 131 128 154 159 153 153 158 163 161 155 151 149
350 350 21 34 71 119 94 42 22 266 288 318 323 315 301 265 277 328 343 64 31 22 42 335 337 354 350 38 73 27 14 53 62 40 48 11 328 357 14 23 45 78 116 146 141 134 142 139 119 120 132 166 226 267 269 301 353 1 338 344 3 38 53 74 90 70 112 186 127 131 194 248 297 21 68 124 130 129 150 160 162 164 164 166 166 163 161 159
16 27 353 11 40 51 43 28 16 333 242 107 24 354 351 305 337 15 39 57 26 30 57 12 345 6 7 23 69 36 9 16 28 56 45 1 312 344 11 31 44 34 53 84 74 91 111 67 84 126 143 174 182 204 216 154 90 76 315 352 353 358 47 86 90 93 173 150 98 209 195 165 168 55 101 170 151 145 163 171 174 174 170 169 168 166 167 164
50 29 347 347 19 20 20 18 7 341 311 50 78 15 359 338 345 14 31 40 15 21 53 30 16 35 11 6 85 61 357 356 19 37 23 343 306 320 5 40 42 18 16 51 36 65 97 38 30 96 82 145 155 143 175 119 116 160 169 43 355 360 61 84 99 165 150 120 157 263 211 138 163 321 341 289 238 181 181 179 179 178 174 172 169 167 167 165
55 27 14 44 40 349 16 3 340 340 25 32 55 49 13 21 32 16 360 14 20 20 38 33 19 24 15 15 111 74 3 15 24 12 354 348 337 336 359 34 31 12 14 33 22 74 113 82 150 94 55 42 90 106 131 117 105 124 115 78 18 31 77 97 119 160 127 137 196 213 111 111 144 339 339 321 314 305 24 89 172 178 179 178 172 168 167 166
50 49 23 47 69 14 30 5 339 3 29 20 22 40 24 29 36 15 340 7 21 13 34 70 17 14 25 34 84 87 17 54 53 359 348 353 341 351 5 355 356 5 15 33 17 53 106 84 98 106 82 49 45 77 117 111 98 64 45 37 35 52 76 85 66 67 100 114 155 122 91 59 344 331 331 347 31 73 70 62 72 90 138 183 178 174 174 172
45 42 9 37 54 20 16 23 18 28 24 11 18 18 12 24 27 13 17 41 41 353 27 81 55 29 42 42 65 94 94 129 116 16 10 21 350 7 30 347 316 347 1 22 359 11 80 102 50 91 89 33 3 35 73 93 107 85 42 22 44 63 55 51 38 28 73 93 114 103 86 41 359 8 14 34 58 67 61 50 47 49 56 126 166 175 179 177
50 45 22 37 41 6 4 18 31 45 22 7 8 358 358 3 358 4 36 40 56 64 43 105 97 42 43 45 57 83 213 179 187 252 239 196 273 292 289 297 337 352 353 3 349 360 63 105 39 64 91 250 334 52 78 81 83 72 36 7 16 58 67 51 38 15 58 140 126 98 96 69 319 357 32 48 55 55 47 38 40 45 51 64 85 135 163 171
50 50 44 78 59 11 5 18 35 52 35 345 346 352 355 350 352 15 69 38 38 52 70 131 118 60 38 33 27 348 297 277 270 287 286 264 265 268 266 277 299 344 342 353 7 16 73 116 121 85 115 242 308 18 103 78 64 31 320 330 3 95 114 94 44 16 15 110 128 126 150 219 304 359 45 51 50 48 43 39 41 45 52 59 63 76 113 144
Height
1496 1495 1495 1494 1493 1492 1491 1491 1490 1489 1488 1487 1486 1485 1484 1483 1482 1481 1481 1480 1480 1479 1479 1478 1477 1477 1476 1476 1475 1475 1475 1474 1473 1472 1471 1469 1469 1469 1470 1472 1473 1474 1475 1476 1477 1477 1478 1479 1479 1480 1480 1481 1482 1483 1483 1484 1485 1485 1488 1492 1492 1491 1489 1486 1484 1484 1484 1480 1476 1474 1474 1475 1474 1472 1471 1471 1472 1473 1475 1476 1476 1476 1475 1476 1477 1477 1479 1482
1496 1495 1494 1494 1493 1492 1491 1490 1490 1489 1488 1487 1486 1485 1483 1482 1481 1481 1480 1480 1479 1479 1478 1477 1477 1476 1476 1475 1475 1474 1474 1473 1472 1471 1469 1468 1468 1468 1469 1471 1472 1473 1474 1475 1476 1477 1478 1478 1479 1479 1480 1481 1482 1482 1483 1483 1484 1485 1488 1491 1489 1487 1485 1481 1481 1481 1481 1478 1475 1475 1475 1476 1475 1473 1471 1473 1475 1475 1475 1477 1477 1476 1476 1478 1478 1480 1482 1483
1495 1494 1494 1493 1492 1492 1491 1490 1490 1489 1488 1487 1486 1484 1483 1482 1481 1480 1480 1479 1479 1478 1478 1477 1477 1476 1475 1475 1474 1474 1473 1472 1471 1470 1469 1468 1468 1468 1469 1470 1471 1472 1474 1475 1476 1476 1477 1478 1478 1479 1480 1480 1481 1482 1482 1482 1483 1483 1486 1488 1484 1482 1481 1479 1479 1479 1478 1477 1476 1475 1474 1474 1474 1472 1471 1472 1475 1475 1475 1476 1476 1476 1477 1478 1480 1482 1484 1485
1494 1494 1493 1493 1492 1491 1491 1490 1489 1489 1488 1487 1486 1484 1483 1482 1481 1480 1479 1479 1478 1478 1477 1477 1476 1476 1475 1474 1474 1474 1473 1471 1469 1468 1469 1468 1468 1468 1469 1470 1471 1472 1473 1474 1475 1476 1476 1478 1478 1479 1479 1480 1481 1482 1482 1482 1482 1482 1483 1484 1480 1479 1479 1476 1476 1476 1476 1477 1476 1475 1474 1473 1471 1471 1470 1471 1476 1477 1475 1473 1473 1474 1475 1478 1481 1483 1485 1486
1493 1493 1492 1492 1491 1491 1490 1490 1489 1488 1487 1486 1485 1484 1483 1482 1481 1480 1479 1478 1478 1477 1477 1476 1476 1475 1475 1474 1474 1474 1474 1472 1468 1468 1469 1468 1469 1468 1469 1469 1470 1472 1473 1473 1474 1475 1476 1477 1478 1479 1479 1480 1481 1481 1481 1480 1481 1482 1481 1480 1478 1478 1479 1474 1474 1475 1475 1476 1476 1475 1474 1473 1470 1470 1471 1471 1475 1477 1474 1472 1472 1473 1473 1476 1479 1482 1484 1486
1492 1492 1491 1491 1491 1490 1490 1489 1489 1488 1487 1486 1485 1484 1483 1482 1481 1480 1479 1478 1478 1477 1476 1476 1475 1475 1474 1474 1474 1474 1474 1472 1468 1468 1469 1468 1469 1468 1469 1469 1470 1471 1472 1472 1473 1474 1476 1477 1478 1479 1479 1480 1481 1481 1480 1480 1481 1482 1480 1478 1476 1477 1477 1473 1472 1474 1474 1476 1475 1475 1474 1472 1471 1471 1471 1472 1472 1472 1471 1472 1473 1474 1475 1476 1478 1480 1483 1486
1491 1491 1490 1490 1490 1489 1489 1488 1488 1487 1487 1486 1485 1484 1483 1482 1481 1480 1479 1478 1477 1477 1476 1475 1475 1475 1474 1474 1474 1474 1473 1470 1468 1468 1468 1468 1468 1468 1468 1468 1469 1470 1471 1471 1472 1474 1475 1477 1478 1478 1480 1480 1481 1480 1479 1479 1480 1481 1479 1477 1475 1476 1475 1473 1472 1472 1473 1475 1474 1474 1474 1472 1472 1472 1471 1471 1470 1470 1470 1471 1473 1475 1477 1478 1480 1482 1484 1486
1491 1490 1489 1489 1489 1488 1488 1488 1487 1487 1486 1486 1485 1484 1483 1482 1481 1480 1479 1478 1477 1477 1476 1475 1475 1474 1474 1474 1474 1473 1472 1469 1468 1468 1468 1468 1468 1468 1468 1468 1469 1469 1470 1471 1472 1474 1475 1476 1477 1478 1480 1480 1480 1479 1478 1479 1479 1479 1478 1475 1474 1474 1473 1471 1471 1470 1471 1472 1472 1474 1474 1471 1471 1471 1471 1471 1471 1471 1470 1470 1473 1475 1478 1480 1482 1484 1485 1486
1490 1489 1489 1488 1488 1487 1487 1487 1486 1486 1485 1485 1485 1484 1483 1482 1481 1480 1479 1478 1477 1477 1476 1475 1475 1474 1474 1474 1474 1473 1469 1468 1468 1468 1468 1467 1467 1467 1467 1467 1468 1468 1469 1471 1472 1474 1475 1476 1477 1478 1480 1480 1479 1478 1477 1479 1479 1477 1476 1475 1474 1473 1471 1470 1469 1469 1469 1470 1471 1473 1472 1470 1469 1471 1472 1472 1472 1472 1471 1471 1473 1475 1478 1481 1483 1485 1486 1486
1490 1488 1488 1487 1487 1486 1486 1486 1485 1485 1485 1484 1484 1483 1483 1482 1481 1480 1479 1479 1478 1477 1476 1475 1474 1474 1474 1473 1474 1472 1467 1467 1468 1467 1467 1467 1466 1466 1466 1466 1467 1468 1469 1470 1471 1473 1474 1476 1477 1478 1479 1478 1477 1477 1477 1478 1477 1474 1474 1474 1473 1471 1469 1468 1468 1467 1467 1468 1468 1470 1470 1468 1468 1471 1474 1473 1472 1473 1473 1473 1475 1476 1478 1481 1483 1485 1486 1487
1489 1488 1487 1486 1486 1485 1485 1485 1484 1484 1484 1483 1483 1483 1482 1482 1481 1480 1479 1478 1478 1477 1476 1475 1474 1474 1473 1473 1474 1471 1466 1467 1467 1467 1467 1466 1466 1465 1465 1466 1467 1468 1469 1470 1471 1473 1474 1476 1477 1478 1478 1478 1477 1476 1475 1475 1474 1473 1473 1473 1471 1469 1468 1466 1466 1466 1466 1467 1466 1466 1467 1467 1469 1471 1471 1470 1471 1472 1473 1475 1477 1478 1479 1481 1483 1485 1486 1488
1489 1488 1487 1486 1485 1484 1484 1484 1483 1483 1483 1482 1482 1482 1481 1481 1480 1480 1479 1478 1477 1477 1476 1475 1474 1473 1473 1472 1470 1467 1466 1466 1466 1466 1466 1466 1465 1465 1465 1466 1467 1468 1469 1470 1472 1473 1475 1476 1477 1477 1477 1477 1477 1476 1474 1473 1473 1472 1472 1472 1470 1469 1467 1464 1464 1464 1465 1465 1464 1465 1468 1468 1468 1469 1468 1469 1471 1473 1473 1475 1478 1480 1480 1481 1483 1484 1486 1488
1488 1487 1486 1485 1485 1484 1483 1483 1482 1482 1482 1482 1481 1481 1481 1480 1480 1479 1478 1478 1477 1476 1475 1474 1473 1473 1473 1469 1465 1465 1465 1465 1465 1465 1466 1465 1465 1464 1465 1466 1467 1468 1469 1471 1472 1474 1475 1475 1476 1476 1476 1477 1476 1475 1472 1472 1471 1471 1471 1472 1472 1471 1467 1463 1463 1464 1464 1464 1462 1465 1473 1470 1467 1468 1467 1468 1470 1472 1475 1476 1478 1480 1480 1482 1483 1484 1486 1488
1489 1487 1486 1485 1484 1483 1483 1482 1481 1481 1481 1481 1480 1480 1479 1479 1479 1478 1478 1477 1476 1475 1474 1474 1473 1472 1471 1467 1463 1464 1464 1464 1464 1464 1465 1465 1464 1464 1465 1466 1467 1468 1470 1471 1473 1474 1474 1475 1476 1475 1474 1475 1474 1473 1472 1472 1472 1471 1471 1473 1477 1477 1469 1462 1463 1463 1463 1463 1459 1464 1473 1470 1466 1468 1467 1468 1469 1470 1474 1476 1478 1479 1480 1481 1482 1484 1485 1487
1489 1487 1486 1485 1484 1483 1482 1481 1480 1480 1480 1480 1479 1479 1478 1478 1477 1477 1477 1476 1475 1474 1473 1473 1472 1471 1470 1465 1462 1463 1462 1463 1463 1463 1464 1465 1464 1465 1465 1466 1468 1469 1470 1471 1472 1473 1474 1475 1475 1474 1473 1472 1472 1473 1474 1474 1473 1474 1475 1476 1478 1479 1472 1463 1461 1462 1462 1461 1459 1463 1471 1469 1466 1467 1466 1468 1469 1469 1472 1475 1477 1478 1479 1481 1482 1484 1485 1487
1489 1487 1486 1485 1483 1482 1481 1480 1480 1479 1479 1478 1478 1478 1478 1477 1476 1476 1475 1474 1474 1473 1473 1472 1471 1472 1470 1463 1461 1462 1461 1462 1462 1463 1464 1464 1465 1465 1466 1467 1468 1469 1470 1470 1471 1471 1473 1474 1473 1473 1472 1471 1473 1474 1476 1479 1478 1477 1479 1478 1477 1477 1475 1468 1460 1459 1459 1459 1460 1461 1466 1467 1464 1464 1466 1468 1470 1471 1472 1475 1477 1478 1479 1481 1482 1484 1485 1487
1489 1487 1486 1484 1483 1482 1481 1480 1479 1479 1478 1478 1477 1477 1477 1476 1475 1475 1473 1473 1473 1472 1472 1471 1471 1471 1466 1460 1460 1461 1461 1461 1462 1463 1463 1464 1465 1465 1467 1467 1468 1469 1469 1470 1470 1470 1471 1472 1472 1472 1471 1473 1475 1475 1481 1486 1483 1480 1480 1478 1476 1476 1478 1473 1463 1458 1458 1459 1461 1460 1462 1463 1463 1464 1467 1469 1470 1471 1472 1474 1476 1478 1480 1481 1483 1484 1486 1487
1489 1487 1485 1484 1482 1481 1480 1479 1479 1478 1478 1477 1477 1477 1476 1475 1474 1473 1472 1471 1472 1472 1472 1470 1471 1471 1463 1458 1460 1460 1460 1461 1461 1462 1462 1463 1464 1465 1467 1467 1467 1469 1469 1469 1469 1469 1470 1471 1471 1472 1473 1475 1476 1477 1484 1486 1480 1479 1480 1479 1477 1477 1477 1475 1467 1458 1457 1459 1461 1461 1463 1466 1466 1466 1468 1469 1471 1471 1472 1473 1475 1478 1480 1482 1483 1484 1486 1487
1488 1487 1485 1483 1482 1481 1480 1479 1478 1478 1477 1476 1476 1476 1475 1474 1473 1471 1470 1470 1470 1470 1469 1468 1468 1467 1460 1458 1459 1460 1460 1460 1460 1461 1462 1462 1463 1465 1466 1467 1467 1468 1469 1469 1469 1469 1470 1470 1472 1475 1476 1476 1475 1476 1478 1477 1475 1477 1479 1479 1479 1478 1475 1471 1464 1458 1457 1460 1461 1462 1464 1466 1467 1467 1469 1470 1472 1473 1474 1476 1477 1479 1480 1481 1483 1484 1484 1485
1487 1486 1484 1483 1481 1480 1479 1478 1478 1477 1477 1476 1476 1475 1474 1473 1472 1471 1470 1469 1467 1466 1465 1464 1463 1462 1459 1457 1458 1459 1459 1459 1459 1460 1461 1462 1463 1464 1465 1466 1467 1468 1469 1469 1469 1469 1469 1472 1475 1475 1474 1472 1472 1473 1473 1474 1476 1477 1477 1477 1478 1477 1472 1465 1460 1457 1457 1459 1463 1464 1463 1463 1465 1466 1467 1469 1472 1473 1474 1477 1478 1478 1479 1480 1482 1483 1483 1484
1487 1485 1484 1482 1481 1480 1479 1478 1477 1477 1476 1476 1475 1475 1474 1474 1473 1472 1469 1465 1462 1462 1461 1460 1460 1459 1456 1455 1457 1459 1459 1458 1458 1458 1460 1461 1462 1464 1464 1465 1467 1468 1469 1468 1469 1469 1470 1475 1474 1470 1469 1469 1471 1474 1474 1475 1476 1476 1476 1477 1476 1476 1470 1462 1459 1458 1456 1458 1464 1465 1462 1463 1465 1465 1466 1466 1469 1471 1471 1474 1475 1476 1478 1479 1481 1483 1484 1485
1486 1484 1483 1482 1480 1479 1478 1477 1477 1476 1476 1475 1475 1475 1474 1474 1473 1472 1470 1464 1458 1457 1457 1456 1457 1456 1453 1454 1456 1458 1459 1459 1457 1457 1459 1460 1462 1462 1463 1464 1466 1467 1468 1469 1470 1472 1474 1474 1468 1466 1469 1471 1473 1474 1474 1474 1475 1476 1476 1476 1474 1473 1469 1463 1459 1458 1456 1457 1463 1463 1461 1465 1467 1467 1467 1465 1464 1465 1466 1468 1470 1473 1476 1479 1481 1482 1483 1485
1485 1483 1482 1481 1479 1479 1477 1476 1476 1475 1475 1475 1475 1474 1474 1473 1472 1471 1470 1466 1457 1453 1453 1452 1453 1452 1451 1452 1454 1456 1457 1457 1456 1456 1457 1459 1460 1461 1462 1463 1465 1466 1467 1469 1470 1475 1477 1470 1464 1466 1468 1469 1470 1471 1472 1473 1474 1474 1474 1473 1472 1471 1471 1468 1462 1459 1459 1460 1463 1462 1462 1467 1468 1468 1468 1467 1466 1466 1468 1469 1470 1472 1474 1476 1478 1479 1480 1482
1483 1482 1481 1479 1479 1478 1476 1475 1475 1474 1474 1474 1474 1474 1473 1472 1471 1470 1469 1466 1459 1451 1449 1449 1449 1449 1448 1450 1452 1453 1454 1455 1455 1454 1455 1457 1458 1459 1460 1461 1464 1466 1466 1467 1469 1473 1471 1463 1462 1465 1466 1467 1468 1469 1471 1471 1472 1473 1471 1470 1470 1468 1470 1470 1467 1463 1462 1463 1465 1463 1467 1472 1472 1471 1470 1469 1470 1470 1471 1473 1473 1474 1476 1477 1478 1479 1480 1481
1482 1481 1479 1478 1478 1477 1476 1474 1473 1474 1473 1473 1474 1473 1473 1471 1470 1470 1468 1467 1462 1452 1447 1447 1446 1446 1446 1449 1451 1451 1453 1453 1452 1452 1454 1454 1455 1458 1459 1460 1462 1465 1466 1467 1469 1470 1466 1460 1461 1463 1464 1467 1468 1469 1469 1470 1472 1471 1468 1466 1465 1465 1467 1467 1466 1465 1466 1469 1468 1467 1475 1481 1476 1473 1472 1470 1471 1471 1473 1474 1473 1476 1479 1478 1478 1479 1481 1483
1481 1480 1478 1477 1476 1475 1475 1473 1473 1473 1472 1473 1473 1472 1473 1471 1470 1469 1468 1472 1467 1451 1445 1447 1446 1445 1445 1448 1449 1451 1454 1451 1448 1450 1452 1452 1454 1456 1458 1459 1460 1462 1464 1465 1467 1467 1462 1459 1459 1461 1463 1465 1469 1470 1468 1469 1472 1471 1466 1463 1463 1465 1466 1465 1463 1465 1471 1474 1472 1470 1477 1483 1479 1473 1472 1471 1471 1472 1473 1474 1474 1476 1477 1476 1477 1479 1482 1483
1479 1478 1476 1476 1474 1474 1474 1473 1473 1472 1471 1472 1471 1472 1472 1470 1471 1468 1469 1478 1469 1449 1445 1446 1445 1445 1444 1445 1447 1451 1455 1449 1445 1448 1449 1451 1454 1454 1457 1459 1459 1460 1460 1464 1468 1465 1459 1458 1459 1461 1462 1464 1468 1468 1465 1466 1469 1468 1465 1463 1464 1464 1465 1466 1464 1467 1472 1472 1472 1472 1473 1479 1480 1475 1474 1474 1473 1474 1474 1473 1474 1474 1474 1474 1476 1479 1482 1483
1478 1476 1475 1474 1473 1473 1472 1472 1472 1471 1471 1471 1470 1472 1471 1470 1471 1468 1475 1484 1465 1444 1444 1444 1443 1444 1443 1445 1446 1447 1449 1446 1445 1447 1446 1450 1452 1452 1455 1456 1457 1458 1457 1462 1468 1463 1458 1457 1458 1459 1462 1463 1462 1460 1460 1462 1464 1463 1463 1463 1463 1462 1464 1467 1466 1469 1474 1474 1475 1477 1475 1481 1484 1476 1475 1476 1474 1476 1474 1471 1472 1471 1471 1472 1475 1479 1481 1483
1476 1475 1473 1472 1472 1471 1470 1470 1470 1470 1471 1470 1470 1471 1469 1471 1469 1468 1481 1482 1456 1442 1444 1443 1443 1444 1443 1444 1445 1444 1444 1444 1446 1446 1446 1449 1451 1451 1453 1454 1455 1458 1457 1460 1463 1460 1457 1456 1455 1457 1460 1459 1455 1455 1457 1459 1460 1459 1461 1463 1464 1466 1469 1470 1469 1470 1475 1479 1482 1482 1479 1484 1486 1476 1473 1475 1474 1476 1475 1470 1470 1470 1470 1471 1474 1478 1480 1482
1474 1473 1472 1470 1469 1470 1469 1468 1469 1469 1470 1469 1470 1470 1469 1470 1470 1477 1488 1475 1451 1444 1444 1442 1443 1443 1442 1444 1445 1444 1444 1444 1444 1445 1446 1448 1450 1450 1451 1453 1455 1457 1458 1460 1460 1457 1455 1454 1454 1454 1455 1454 1451 1454 1457 1456 1457 1458 1460 1462 1464 1468 1471 1473 1475 1474 1479 1487 1487 1484 1482 1484 1488 1481 1475 1477 1476 1477 1476 1471 1468 1468 1470 1473 1474 1476 1478 1479
1472 1471 1470 1468 1468 1467 1467 1467 1468 1468 1469 1469 1469 1468 1469 1470 1475 1485 1483 1462 1450 1448 1443 1443 1444 1441 1443 1444 1444 1444 1443 1444 1443 1444 1447 1448 1450 1451 1452 1454 1456 1459 1463 1462 1459 1459 1456 1454 1454 1451 1450 1451 1450 1453 1456 1456 1458 1459 1461 1463 1466 1473 1475 1476 1480 1479 1486 1494 1488 1484 1485 1484 1487 1484 1477 1477 1476 1476 1475 1471 1467 1466 1467 1471 1474 1475 1477 1479
1469 1468 1467 1466 1465 1465 1465 1466 1467 1468 1468 1468 1468 1467 1469 1475 1480 1482 1470 1455 1453 1451 1445 1446 1445 1442 1443 1443 1443 1443 1443 1444 1443 1443 1446 1448 1451 1451 1451 1453 1456 1463 1469 1466 1462 1461 1456 1452 1453 1451 1448 1449 1451 1456 1458 1458 1459 1460 1462 1467 1474 1483 1485 1485 1489 1489 1491 1492 1486 1486 1487 1485 1486 1483 1478 1478 1476 1474 1473 1469 1466 1465 1466 1468 1472 1475 1477 1480
1466 1465 1464 1463 1462 1461 1462 1464 1465 1467 1467 1467 1468 1467 1470 1480 1480 1471 1463 1458 1455 1449 1446 1447 1445 1443 1443 1443 1444 1443 1442 1444 1442 1441 1444 1446 1450 1451 1450 1451 1452 1457 1464 1466 1465 1463 1460 1456 1453 1451 1449 1448 1451 1457 1460 1460 1460 1460 1462 1467 1476 1487 1494 1496 1501 1502 1496 1490 1487 1488 1486 1485 1487 1483 1479 1479 1476 1473 1470 1467 1466 1466 1467 1469 1471 1475 1478 1480
1463 1462 1461 1460 1459 1459 1460 1462 1463 1465 1466 1467 1467 1468 1475 1480 1473 1463 1462 1460 1452 1448 1447 1447 1445 1443 1442 1444 1444 1442 1444 1444 1440 1441 1444 1446 1451 1453 1451 1451 1452 1453 1456 1464 1467 1464 1466 1465 1455 1451 1451 1449 1449 1452 1454 1455 1457 1461 1462 1464 1470 1477 1484 1491 1494 1493 1492 1490 1489 1487 1484 1487 1488 1483 1480 1479 1476 1472 1470 1468 1467 1468 1470 1471 1473 1477 1479 1481
1460 1459 1457 1456 1456 1456 1457 1460 1461 1463 1465 1465 1467 1472 1475 1474 1468 1463 1461 1456 1451 1450 1448 1446 1445 1445 1444 1444 1443 1442 1444 1445 1441 1442 1445 1446 1450 1451 1450 1449 1450 1452 1455 1462 1466 1464 1467 1465 1453 1449 1450 1448 1449 1449 1449 1452 1458 1464 1465 1463 1467 1466 1469 1483 1492 1489 1489 1489 1488 1487 1487 1489 1487 1481 1480 1480 1476 1473 1471 1470 1470 1471 1472 1472 1474 1477 1479 1481
1457 1455 1454 1453 1452 1453 1455 1456 1458 1460 1462 1463 1468 1472 1471 1465 1462 1461 1456 1452 1453 1452 1450 1448 1446 1448 1449 1446 1446 1445 1442 1443 1443 1443 1445 1446 1447 1449 1448 1446 1446 1448 1450 1456 1461 1464 1467 1462 1451 1450 1449 1446 1448 1448 1448 1452 1457 1463 1464 1463 1465 1463 1462 1478 1494 1495 1492 1489 1491 1492 1491 1490 1488 1483 1479 1479 1478 1475 1474 1474 1475 1477 1477 1476 1476 1478 1480 1483
1454 1452 1451 1450 1450 1450 1451 1453 1455 1458 1460 1462 1467 1469 1465 1460 1457 1456 1454 1452 1453 1452 1453 1456 1450 1448 1452 1450 1450 1449 1444 1444 1445 1444 1447 1447 1447 1449 1448 1445 1443 1444 1444 1448 1454 1457 1460 1459 1453 1451 1450 1447 1446 1447 1448 1450 1453 1459 1461 1459 1461 1465 1465 1471 1485 1496 1497 1494 1493 1496 1494 1492 1492 1488 1483 1480 1479 1479 1479 1478 1478 1479 1481 1482 1481 1480 1482 1486
1452 1450 1449 1448 1447 1446 1448 1451 1453 1456 1458 1462 1466 1465 1463 1459 1454 1454 1454 1453 1453 1452 1455 1459 1452 1447 1451 1452 1452 1450 1447 1448 1447 1446 1448 1447 1447 1449 1448 1444 1441 1442 1442 1443 1448 1451 1454 1458 1457 1452 1452 1450 1446 1447 1451 1452 1451 1454 1456 1455 1458 1466 1469 1472 1481 1491 1497 1500 1498 1497 1499 1496 1491 1488 1485 1482 1481 1480 1481 1481 1480 1480 1482 1484 1482 1480 1483 1486
1451 1449 1448 1447 1445 1444 1446 1449 1452 1455 1457 1462 1466 1464 1460 1457 1453 1453 1455 1454 1454 1454 1454 1455 1450 1447 1448 1448 1449 1448 1447 1450 1450 1448 1449 1449 1448 1447 1446 1444 1441 1441 1442 1441 1447 1451 1453 1459 1460 1453 1451 1451 1449 1452 1459 1459 1454 1452 1454 1456 1459 1464 1468 1472 1479 1482 1486 1498 1502 1498 1499 1494 1486 1484 1483 1481 1482 1481 1481 1482 1481 1481 1482 1483 1482 1482 1484 1486
1451 1449 1449 1447 1444 1444 1446 1449 1452 1454 1457 1460 1463 1460 1457 1455 1453 1452 1454 1454 1453 1453 1452 1450 1449 1449 1447 1445 1445 1445 1445 1448 1450 1449 1448 1449 1449 1446 1444 1443 1441 1441 1442 1442 1447 1451 1454 1459 1461 1455 1452 1456 1458 1459 1462 1462 1459 1457 1458 1461 1463 1467 1470 1472 1479 1482 1480 1488 1497 1498 1500 1493 1483 1482 1481 1480 1482 1480 1480 1481 1482 1483 1483 1483 1484 1484 1486 1487
1451 1450 1450 1448 1445 1446 1447 1449 1452 1454 1456 1458 1459 1458 1456 1454 1452 1451 1452 1452 1452 1450 1449 1447 1447 1447 1445 1444 1444 1442 1442 1445 1448 1447 1446 1446 1448 1446 1443 1441 1441 1442 1443 1445 1447 1451 1454 1457 1460 1459 1458 1461 1462 1460 1459 1460 1460 1460 1462 1467 1469 1469 1470 1473 1481 1487 1481 1483 1490 1494 1497 1491 1481 1480 1481 1480 1481 1479 1478 1479 1481 1483 1483 1484 1486 1486 1486 1487
1453 1452 1452 1450 1448 1448 1448 1451 1453 1453 1455 1456 1455 1454 1454 1452 1452 1451 1450 1450 1450 1447 1446 1444 1444 1444 1444 1443 1442 1440 1442 1445 1447 1446 1444 1444 1444 1444 1441 1439 1440 1441 1443 1448 1450 1450 1452 1455 1459 1463 1465 1465 1463 1460 1460 1460 1460 1460 1462 1468 1470 1468 1469 1471 1477 1482 1482 1487 1490 1489 1492 1489 1480 1480 1481 1480 1481 1481 1479 1479 1480 1482 1484 1485 1486 1486 1487 1488
1454 1453 1452 1450 1449 1448 1449 1452 1454 1454 1453 1453 1452 1452 1452 1451 1451 1450 1449 1448 1448 1445 1444 1443 1441 1442 1442 1441 1440 1441 1443 1445 1446 1445 1444 1443 1442 1441 1441 1440 1440 1441 1444 1448 1450 1449 1451 1456 1461 1466 1468 1466 1462 1460 1460 1460 1460 1462 1465 1468 1469 1469 1471 1472 1474 1475 1479 1486 1487 1487 1493 1489 1480 1480 1481 1480 1482 1482 1482 1482 1482 1484 1486 1487 1488 1488 1489 1490
1454 1454 1452 1451 1448 1448 1452 1455 1455 1455 1454 1453 1452 1451 1451 1450 1449 1449 1448 1448 1448 1446 1444 1443 1442 1442 1441 1440 1442 1445 1445 1445 1446 1445 1445 1445 1444 1442 1441 1440 1440 1442 1444 1446 1448 1447 1452 1459 1463 1467 1474 1476 1472 1467 1464 1463 1465 1469 1472 1472 1470 1470 1471 1472 1475 1474 1478 1485 1484 1484 1492 1490 1482 1482 1482 1481 1483 1484 1484 1485 1484 1485 1486 1487 1489 1490 1491 1492
1454 1454 1454 1453 1451 1450 1455 1458 1457 1457 1456 1455 1454 1453 1452 1450 1448 1448 1448 1448 1449 1448 1447 1446 1445 1445 1443 1441 1443 1447 1445 1444 1446 1447 1447 1448 1447 1444 1442 1442 1442 1443 1444 1445 1445 1447 1453 1461 1461 1463 1475 1484 1482 1477 1472 1471 1473 1475 1475 1474 1473 1472 1469 1470 1474 1474 1477 1486 1486 1482 1487 1488 1484 1485 1484 1484 1485 1485 1486 1487 1486 1487 1487 1488 1489 1490 1492 1493
1457 1457 1457 1456 1454 1454 1456 1457 1458 1458 1457 1456 1456 1456 1455 1453 1450 1448 1448 1449 1450 1449 1449 1449 1447 1446 1446 1444 1446 1450 1450 1448 1447 1449 1452 1453 1450 1447 1445 1444 1444 1445 1445 1444 1445 1449 1456 1463 1463 1461 1466 1472 1473 1473 1473 1473 1476 1479 1478 1476 1476 1476 1473 1471 1475 1476 1478 1484 1486 1483 1484 1486 1486 1487 1487 1486 1485 1485 1486 1487 1487 1487 1487 1488 1490 1490 1492 1494
1461 1464 1465 1462 1460 1460 1459 1458 1460 1461 1457 1455 1457 1459 1459 1457 1453 1451 1449 1450 1452 1451 1451 1453 1452 1451 1452 1451 1449 1453 1456 1454 1452 1454 1457 1458 1454 1451 1449 1447 1446 1447 1446 1445 1446 1450 1456 1464 1467 1466 1467 1469 1470 1472 1473 1473 1476 1478 1478 1477 1476 1476 1473 1471 1474 1478 1480 1483 1485 1486 1485 1486 1488 1490 1490 1490 1488 1487 1487 1486 1486 1487 1488 1489 1490 1491 1493 1494
1465 1468 1469 1467 1468 1469 1467 1465 1465 1463 1458 1456 1459 1461 1461 1459 1457 1457 1455 1453 1453 1453 1452 1456 1458 1457 1458 1455 1452 1455 1459 1458 1457 1460 1461 1460 1458 1454 1451 1449 1449 1449 1448 1447 1448 1450 1457 1465 1468 1469 1472 1475 1475 1475 1474 1474 1476 1478 1478 1479 1477 1474 1473 1473 1478 1482 1482 1480 1483 1487 1488 1489 1492 1494 1493 1492 1491 1490 1489 1489 1488 1489 1489 1490 1491 1491 1492 1493
1468 1470 1470 1470 1471 1473 1473 1471 1469 1465 1462 1461 1461 1462 1463 1463 1462 1461 1459 1456 1457 1457 1456 1461 1464 1462 1460 1458 1455 1460 1464 1460 1461 1465 1465 1463 1462 1460 1457 1455 1453 1452 1450 1450 1451 1452 1457 1466 1469 1469 1474 1479 1478 1477 1474 1472 1475 1481 1484 1484 1482 1479 1479 1480 1484 1489 1486 1485 1489 1491 1490 1493 1496 1497 1495 1493 1492 1491 1490 1490 1490 1490 1491 1491 1491 1491 1492 1493
1472 1473 1473 1471 1472 1473 1473 1472 1470 1468 1467 1466 1466 1466 1466 1466 1465 1463 1461 1460 1462 1462 1461 1464 1466 1464 1463 1461 1460 1464 1467 1464 1464 1466 1466 1465 1464 1462 1463 1462 1459 1457 1454 1454 1455 1454 1456 1466 1470 1468 1473 1479 1479 1478 1475 1472 1474 1480 1485 1486 1484 1482 1483 1484 1489 1492 1490 1491 1495 1493 1490 1495 1498 1497 1496 1494 1492 1491 1491 1491 1492 1491 1491 1492 1492 1493 1493 1493
1475 1475 1475 1474 1475 1476 1475 1473 1472 1472 1474 1474 1473 1472 1470 1469 1468 1466 1465 1465 1465 1465 1464 1465 1466 1465 1464 1464 1464 1466 1468 1467 1466 1465 1465 1465 1465 1464 1464 1463 1462 1461 1458 1457 1458 1455 1457 1467 1471 1469 1473 1479 1479 1478 1477 1475 1476 1479 1484 1488 1487 1485 1488 1492 1496 1497 1494 1492 1493 1491 1491 1497 1499 1498 1497 1495 1493 1493 1494 1495 1494 1494 1493 1493 1493 1493 1494 1495
1476 1476 1476 1476 1478 1479 1478 1476 1475 1477 1481 1482 1479 1477 1474 1472 1469 1467 1467 1468 1467 1467 1467 1466 1466 1465 1465 1466 1466 1467 1467 1466 1465 1464 1464 1464 1464 1464 1464 1462 1462 1463 1462 1461 1461 1461 1462 1465 1468 1470 1474 1479 1481 1481 1478 1476 1478 1483 1487 1492 1494 1493 1493 1496 1500 1501 1500 1497 1494 1493 1496 1500 1501 1499 1498 1497 1497 1497 1498 1498 1497 1497 1496 1494 1494 1494 1495 1496